Home > Weather > Worb > Past weeks

Flag for Switzerland Weather for the Past 2 Weeks in Worb, Bern, Switzerland

Now
48 °F

Passing clouds.


Feels Like: 48 °F
Forecast: 40 / 70 °F
Wind: 2 mph from North

Location: Bern / Belp

Current Time: May 7, 2016 at 1:27:05 AM

Latest Report: May 7, 2016 at 12:50 AM


Visibility: N/A

Pressure: 29.92 "Hg (27.88 "Hg at 583m altitude)

Humidity: 87%

Dew Point: 45 °F

Location of WorbLocation

Historic Weather in Worb — Graph

°F

Worb Temperature Yesterday

Maximum temperature yesterday: 73 °F (at 3:50 PM)
Minimum temperature yesterday: 36 °F (at 5:20 AM)
Average temperature yesterday: 55 °F

High & Low Weather Summary for the Past Weeks

 TemperatureHumidityPressure
High73 °F (May 6, 3:50 PM)100% (Apr 22, 1:50 AM)30.33 "Hg (Apr 22, 1:50 AM)
Low28 °F (Apr 28, 6:50 AM)31% (May 6, 4:50 PM)29.68 "Hg (Apr 26, 4:20 PM)
Average46 °F79%30.00 "Hg
* Reported Apr 22 12:20 AM — May 7 12:20 AM, Worb, Weather by CustomWeather, © 2016

Note: Actual official high and low records may vary slightly from our data, if they occured in-between our weather recording intervals... More about our weather records

Advertising

Worb Weather History for the Previous 24 Hours

Scroll right to see more
 ConditionsComfort  
Time TempWeatherWind HumidityBarometerVisibility
12:20 AM
Sat, May 7
48 °FPassing clouds.2 mph87%29.89 "HgN/A
11:50 PM
Fri, May 6
50 °FPassing clouds.3 mph82%29.92 "HgN/A
11:20 PM50 °FClear.3 mph88%29.89 "Hg10 mi
10:50 PM50 °FClear.1 mph88%29.92 "Hg10 mi
10:20 PM50 °FPassing clouds.6 mph88%29.89 "HgN/A
9:50 PM52 °FClear.1 mph82%29.89 "Hg10 mi
9:20 PM55 °FSunny.1 mph77%29.89 "Hg10 mi
8:50 PM61 °FSunny.3 mph59%29.89 "Hg10 mi
8:20 PM66 °FSunny.6 mph43%29.89 "Hg10 mi
7:50 PM68 °FPassing clouds.7 mph40%29.89 "HgN/A
7:20 PM70 °FPassing clouds.6 mph38%29.89 "HgN/A
6:50 PM72 °FPassing clouds.9 mph36%29.89 "HgN/A
6:20 PM73 °FPassing clouds.7 mph31%29.89 "HgN/A
5:50 PM72 °FPassing clouds.2 mph33%29.89 "HgN/A
5:20 PM73 °FPassing clouds.2 mph31%29.89 "HgN/A
4:50 PM72 °FPassing clouds.5 mph31%29.89 "HgN/A
4:20 PM73 °FPassing clouds.3 mph33%29.92 "HgN/A
3:50 PM73 °FPassing clouds.3 mph33%29.92 "HgN/A
3:20 PM70 °FPassing clouds.5 mph40%29.92 "HgN/A
2:50 PM70 °FPassing clouds.2 mph38%29.95 "HgN/A
2:20 PM70 °FPassing clouds.5 mph35%29.95 "HgN/A
1:50 PM70 °FSunny.7 mph40%29.98 "Hg10 mi
1:20 PM68 °FSunny.3 mph43%29.98 "Hg10 mi
12:50 PM66 °FSunny.5 mph37%29.98 "Hg10 mi
12:20 PM66 °FPassing clouds.5 mph43%30.01 "HgN/A
11:50 AM64 °FPassing clouds.6 mph46%30.01 "HgN/A
11:20 AM63 °FSunny.3 mph49%30.01 "Hg10 mi
10:50 AM61 °FSunny.2 mph48%30.04 "Hg10 mi
10:20 AM57 °FSunny.1 mph59%30.04 "Hg10 mi
9:50 AM57 °FSunny.2 mph59%30.04 "Hg10 mi
9:20 AM54 °FSunny.2 mph67%30.04 "Hg10 mi
8:50 AM52 °FSunny.1 mph72%30.04 "Hg10 mi
8:20 AM46 °FSunny.1 mph82%30.04 "Hg10 mi
7:50 AM41 °FSunny.1 mph93%30.04 "Hg10 mi
7:20 AM41 °FSunny.2 mph93%30.04 "Hg10 mi
6:50 AM39 °FClear.2 mph93%30.04 "Hg10 mi
6:20 AM37 °FPassing clouds.5 mph100%30.04 "HgN/A
5:50 AM37 °FClear.1 mph100%30.04 "Hg10 mi
5:20 AM36 °FClear.3 mph100%30.04 "Hg10 mi
4:50 AM37 °FClear.3 mph100%30.04 "Hg10 mi
4:20 AM37 °FClear.2 mph100%30.04 "Hg10 mi
3:50 AM37 °FClear.1 mph100%30.04 "Hg10 mi
3:20 AM37 °FClear.2 mph100%30.04 "Hg10 mi
2:50 AM37 °FClear.1 mph100%30.04 "Hg10 mi
2:20 AM39 °FChilly.1 mph100%30.04 "HgN/A
1:50 AM39 °FPassing clouds.3 mph100%30.04 "HgN/A
1:20 AM39 °FClear.2 mph100%30.04 "Hg10 mi
Weather by CustomWeather, © 2016

See weather overviewHow to use our weather pages